Location: Austin
(30.3000°N, 97.7500°W)
Time: 23:07:24
(UTC-06:00)

CZ-3 Stage 3 - Pass Details

Date: 03 December 2025
Orbit: 204 x 9709 km, 30.8° (Epoch: 07 December)

Event Time Altitude Azimuth Distance (km) Brightness Sun altitude
Exits shadow 05:19:19 34° 275° (W) 2,865 4.3 -23.7°
Maximum altitude 05:26:02 89° 6° (N) 3,049 4.9 -22.3°
Drops below altitude 10° 06:14:18 10° 102° (ESE) 12,766 9.7 -12.3°
Sets 06:31:09 0° 104° (ESE) 14,647 10.8 -8.9°
